sat.trackr.live / text

‹ back to catalog

STARLINK-36943

NORAD 68035 · 2026-040W

PAYLOAD ACTIVE UNKNOWN

§ Identity

Operator
Country
US
Launch date
2026-03-01
Launch site
AFWTR
Launch vehicle
Mass (kg)
RCS (m²)

Purposes: comms

External: N2YO · Heavens-Above · Gunter

§ Orbital elements

Epoch: 2026-05-24T19:34:15.394944Z

Period
93.91 min
Inclination
97.2849°
Eccentricity
0.0001802
Mean motion
15.33449301 rev/d
Perigee alt
464.3 km
Apogee alt
466.8 km
Semi-major
6,843.7 km
B*
5.9096e-4
RAAN
93.9025°
Arg perigee
105.1259°
Mean anomaly
255.0183°
Rev number
1,426

§ Raw data

STARLINK-369431 68035U 26040W   26144.81545596  .00019055  00000+0  59096-3 0  99952 68035  97.2849  93.9025 0001802 105.1259 255.0183 15.33449301 14265

JSON: /api/v1/satellites/68035 · /tle

For live sub-satellite position, see the globe view (requires WebGL).

§ Visibility from observer

Set your observer location to see the next 7 days of passes ≥ 10°. The values pass through the URL so the page stays shareable.

No JS? Fill the form by hand. The geolocation button needs JavaScript.